Regional Weather Roundup
Issued by NWS

Home | Current Version | Previous Version | Graphics & Text | Print | Product List | Glossary On
Versions: 1 2 3 4 5 6 7 8 9 10 11 12 13 14 15 16 17 18 19 20 21 22 23 24 25 26 27 28 29 30 31 32 33 34 35 36 37 38 39 40 41 42 43 44 45 46 47 48 49
000
ASUS45 KCYS 150910
RWRWY

WYOMING REGIONAL WEATHER ROUNDUP
NATIONAL WEATHER SERVICE CHEYENNE WY
300 AM MDT MON SEP 15 2014

NOTE:  "FAIR" INDICATES FEW OR NO CLOUDS BELOW 12,000 FEET
WITH NO SIGNIFICANT WEATHER AND/OR OBSTRUCTIONS TO VISIBILITY.

WYZ001-151000-
YELLOWSTONE NATIONAL PARK

CITY           SKY/WX    TMP DP  RH WIND       PRES   REMARKS
LK YELLOWSTONE   N/A     30  26  85 CALM      30.33S
W YELLOWSTONE  NOT AVBL

$$
WYZ002>013-054>058-071-098>099-151000-
NORTHERN WYOMING

CITY           SKY/WX    TMP DP  RH WIND       PRES   REMARKS
JACKSON        CLEAR     37  27  65 N5        30.26R WCI  34
CODY           CLEAR     43  37  81 SW3       30.25S
GREYBULL       CLEAR     46  39  76 CALM      30.22S
WORLAND        CLEAR     42  38  85 S3        30.23S
SHERIDAN       CLEAR     36  33  89 CALM      30.24S
BUFFALO        CLEAR     45  35  68 CALM      30.27S
GILLETTE       CLEAR     35  34  96 S3        30.24F
HULETT         FAIR      39  36  87 MISG      30.25
NEWCASTLE      FAIR      37  37 100 E3        30.28

$$
WYZ014>020-022>026-101>103-151000-
CENTRAL WYOMING

CITY           SKY/WX    TMP DP  RH WIND       PRES   REMARKS
BIG PINEY      PTCLDY    37  26  64 NW5       30.29S WCI  33
PINEDALE       MOSUNNY   32  27  80 W7        30.30S WCI  26
DUBOIS         FAIR      36  28  75 NW8       30.34S WCI  29
LANDER         CLEAR     49  34  56 W8        30.26S
RIVERTON       CLEAR     46  35  65 NE7       30.28R
CASPER         CLEAR     37  33  85 NW5       30.29R WCI  33
DOUGLAS        CLEAR     39  36  89 CALM      30.28S

$$
WYZ021-027>030-104>119-151000-
SOUTHERN WYOMING

CITY           SKY/WX    TMP DP  RH WIND       PRES   REMARKS
EVANSTON       MOCLDY    54  33  45 S7        30.27S
KEMMERER       MOSUNNY   45  30  57 N9        30.30S
FORT BRIDGER   FAIR      56  32  40 S9        30.30R
ROCK SPRINGS   CLEAR     49  34  56 NE13      30.29R
DIXON          FAIR      45  35  67 NE5       30.29S
RAWLINS        CLEAR     46  38  73 N7        30.30R
SARATOGA       FAIR      41  36  81 CALM      30.31R
LARAMIE        MOCLDY    41  39  93 W3        30.31R
CHEYENNE       PTCLDY    44  42  93 NW7       30.28R
TORRINGTON     CLEAR     40  37  89 N9        30.26R WCI  34
PINE BLUFFS    FAIR      39  37  93 N6        30.26S WCI  35

$$



USA.gov is the U.S. government's official web portal to all federal, state and local government web resources and services.